星链-1609 (STARLINK-1609 )

导读 | 豆包AI

STARLINK-1609是美国SpaceX公司星链星座的一员,于2021年2月16日发射入轨。星链是全球规模最大的低轨卫星互联网项目,旨在为全球提供高覆盖、低时延的宽带通信服务。 该卫星运行在近地轨道,依托星座组网,可为偏远地区、海事、航空等场景提供互联网接入,推动全球无缝互联,是星链构建太空通信网络的重要组成部分,也体现了美国在商业航天领域的领先布局。

基本信息
目录编号:
47621
目录名称:
STARLINK-1609
国际标识:
2021-012B
轨道中心:
EARTH
卫星名称:
星链-1609
卫星全名:
星链-1609 (STARLINK-1609 )
卫星状态:
在轨 (已飞行1852 天)
发射日期:
2021-02-16 UTC
国别 :
美国 (US)
星等 :
--
轨道信息
数据来源 国际轨道数据 AOE轨道数据
星历时间 2026-03-14T06:46:16+0800
12小时前
查看轨道信息
2026-03-14T11:00:00+0800
8小时前
查看轨道信息
半长轴 6853.37km 6853.364km
偏心率 0.0001662 0.00016
轨道倾角 53.163° 53.162°
近地点辐角 101.240° 85.609°
升交点赤经 45.166° 44.353°
平近点角 258.879° 165.701°
近地点 474.093km 474.13km
远地点 476.373km 476.324km
周期 94.106分钟 94.106分钟
每日圈数 15.301943 15.301963
详细信息
固有亮度:
5
最大亮度:
2.5
卫星平台:
Starlink V1.0
覆盖范围:
全球
运营商:
太空探索技术公司
运营商所在国:
美国
制造商(研发单位):
太空探索技术公司
制造商所在国:
美国
使用方式:
暂无
卫星简介
星链(Starlink)计划是由太空探索技术公司(SpaceX)提出的一个巨型低轨卫星互联网星座项目,计划在2019年至2024年间在太空搭建由约1.2万颗卫星组成的“星链”网络,其中1584颗将部署在地球上空550千米处的近地轨道,并从2020年开始工作。该卫星仍在工作。
2D轨道图
3D轨道图
轨道高度分析图
轨道倾角分析图
轨道综合分析图
查看轨道综合分析图